Location: Wildcat Hills Observatory
(41.6350°N, 103.6812°W)
Time: 10:29:11
(UTC-06:00)

Cosmos 1048 Rocket - Pass Details

Date: 23 June 2018
Orbit: 744 x 791 km, 74.0° (Epoch: 21 September)

Event Time Altitude Azimuth Distance (km) Brightness Sun altitude
Rises 21:01:55 0° 196° (SSW) 3,239 7.0 -5.2°
Reaches altitude 10° 21:04:16 10° 196° (SSW) 2,322 6.3 -5.6°
Maximum altitude 21:09:34 86° 109° (ESE) 792 4.1 -6.4°
Drops below altitude 10° 21:14:57 10° 21° (NNE) 2,360 6.8 -7.1°
Sets 21:17:22 0° 21° (NNE) 3,296 7.6 -7.5°
